FW4608 Weather Reports


time (UTC)temp
F
wind
direction
speed
knots
gust
knots
rain 1hr
in
rain 24hr
in
rain mn
in
humidity
%
barometer
mb
20260903141548 82 151 0.0 1.7 0.01 0.35 0.01 90 1015.7
20260903141048 82 141 0.0 1.7 0.00 0.34 0.00 90 1015.8
20260903140546 82 287 0.0 0.9 0.00 0.34 0.00 90 1015.7
20260903140044 82 287 0.0 0.9 0.00 0.34 0.00 90 1015.7
20260903135543 82 182 0.0 2.6 0.00 0.34 0.00 90 1015.9
20260903135042 81 178 0.0 2.6 0.00 0.34 0.00 91 1015.8
20260903134550 81 144 0.0 0.9 0.00 0.34 0.00 93 1015.9
20260903134042 81 144 0.0 0.9 0.00 0.34 0.00 93 1015.9
20260903133540 80 276 0.0 0.9 0.00 0.34 0.00 93 1015.8
20260903133038 80 224 0.0 0.9 0.00 0.34 0.00 94 1015.8
20260903132534 80 277 0.0 0.9 0.00 0.34 0.00 94 1015.8
20260903132033 80 254 0.0 0.9 0.00 0.34 0.00 95 1015.8
20260903131532 79 258 0.0 0.9 0.00 0.34 0.00 95 1015.7
20260903131030 79 257 0.0 0.0 0.00 0.34 0.00 95 1015.7
20260903130529 79 258 0.0 0.9 0.00 0.34 0.00 95 1015.7
20260903130027 79 258 0.0 0.9 0.00 0.34 0.00 95 1015.7
20260903125528 79 241 0.0 0.9 0.00 0.34 0.00 95 1015.7
20260903125026 78 49 0.0 0.9 0.00 0.34 0.00 95 1015.7
20260903124525 78 49 0.0 0.9 0.00 0.34 0.00 95 1015.7
20260903124025 78 49 0.0 0.9 0.00 0.34 0.00 96 1015.7
20260903123523 78 352 0.0 0.9 0.00 0.34 0.00 96 1015.7
20260903123032 78 326 0.0 0.9 0.00 0.34 0.00 96 1015.8
20260903122523 78 265 0.0 0.9 0.00 0.34 0.00 96 1015.8
20260903122020 78 264 0.0 0.0 0.00 0.34 0.00 96 1015.7
20260903121526 78 264 0.0 0.0 0.00 0.34 0.00 96 1015.7
20260903121017 78 264 0.0 0.0 0.00 0.34 0.00 96 1015.5
20260903120520 78 264 0.0 0.9 0.00 0.34 0.00 96 1015.5
20260903120015 78 264 0.0 0.9 0.00 0.34 0.00 96 1015.4
20260903115513 77 264 0.0 0.0 0.00 0.34 0.00 95 1015.3
20260903115013 77 264 0.0 0.0 0.00 0.34 0.00 95 1015.2
20260903114512 77 264 0.0 0.0 0.00 0.34 0.00 95 1015.1
20260903114011 77 264 0.0 0.0 0.00 0.34 0.00 95 1015.1
20260903113511 77 264 0.0 0.0 0.00 0.34 0.00 95 1015.1
20260903113010 77 264 0.0 0.0 0.00 0.34 0.00 95 1015.0
20260903112511 77 264 0.0 0.0 0.00 0.34 0.00 95 1014.9
20260903112009 77 264 0.0 0.0 0.00 0.34 0.00 95 1014.8
20260903111511 77 264 0.0 0.0 0.00 0.34 0.00 95 1014.7
20260903111010 77 264 0.0 0.0 0.00 0.34 0.00 95 1014.7
20260903110508 77 264 0.0 0.0 0.00 0.34 0.00 95 1014.6
20260903110007 77 264 0.0 0.0 0.00 0.34 0.00 95 1014.5
20260903105508 77 264 0.0 0.0 0.00 0.34 0.00 95 1014.4
20260903105007 77 264 0.0 0.0 0.00 0.34 0.00 95 1014.5
20260903104507 77 264 0.0 0.0 0.00 0.34 0.00 95 1014.4
20260903104006 77 264 0.0 0.0 0.00 0.34 0.00 95 1014.4
20260903103505 77 264 0.0 0.0 0.00 0.34 0.00 95 1014.3
20260903103004 77 264 0.0 0.0 0.00 0.34 0.00 95 1014.3
20260903102504 77 264 0.0 0.0 0.00 0.34 0.00 95 1014.4
20260903102004 77 264 0.0 0.0 0.00 0.34 0.00 95 1014.3
20260903101502 77 264 0.0 0.0 0.00 0.34 0.00 95 1014.3
20260903101005 77 264 0.0 0.0 0.00 0.34 0.00 95 1014.2
20260903100502 77 264 0.0 0.0 0.00 0.34 0.00 95 1014.2
20260903100001 77 264 0.0 0.0 0.00 0.34 0.00 95 1014.2
20260903095600 77 264 0.0 0.0 0.00 0.34 0.00 95 1014.1
20260903095100 77 264 0.0 0.0 0.00 0.34 0.00 95 1014.2
20260903094612 77 264 0.0 0.0 0.00 0.34 0.00 95 1014.0
20260903094059 77 264 0.0 0.0 0.00 0.34 0.00 95 1013.9
20260903093556 77 264 0.0 0.0 0.00 0.34 0.00 95 1013.9
20260903093057 77 264 0.0 0.0 0.00 0.34 0.00 95 1013.9
20260903092557 77 264 0.0 0.0 0.00 0.34 0.00 95 1013.9
20260903092057 77 264 0.0 0.0 0.00 0.34 0.00 95 1013.9
20260903091612 77 264 0.0 0.0 0.00 0.34 0.00 95 1013.9
20260903091054 77 264 0.0 0.0 0.00 0.34 0.00 95 1013.9
20260903090554 77 264 0.0 0.0 0.00 0.34 0.00 95 1013.9
20260903090057 77 264 0.0 0.0 0.00 0.34 0.00 95 1013.9
20260903085553 77 264 0.0 0.0 0.00 0.34 0.00 95 1013.9
20260903085052 77 264 0.0 0.0 0.00 0.34 0.00 95 1013.9
20260903084554 77 264 0.0 0.0 0.00 0.34 0.00 95 1014.0
20260903084054 77 264 0.0 0.0 0.00 0.34 0.00 95 1013.9
20260903083550 77 264 0.0 0.0 0.00 0.34 0.00 95 1014.0
20260903083049 77 264 0.0 0.0 0.00 0.34 0.00 95 1014.0
20260903082547 77 264 0.0 0.0 0.00 0.34 0.00 95 1014.1
20260903082047 77 264 0.0 0.0 0.00 0.34 0.00 95 1014.1
20260903081546 77 264 0.0 0.0 0.00 0.34 0.00 95 1014.2
20260903081046 77 264 0.0 0.0 0.00 0.34 0.00 95 1014.2
20260903080544 77 264 0.0 0.0 0.00 0.34 0.00 95 1014.2
20260903080048 77 264 0.0 0.0 0.00 0.34 0.00 95 1014.3
20260903075543 77 264 0.0 0.0 0.00 0.34 0.00 95 1014.2
20260903075042 77 264 0.0 0.0 0.00 0.34 0.00 95 1014.2
20260903074546 77 264 0.0 0.0 0.00 0.34 0.00 95 1014.3
20260903074041 77 264 0.0 0.0 0.00 0.34 0.00 95 1014.2
20260903073539 77 264 0.0 0.0 0.00 0.34 0.00 95 1014.3
20260903073038 77 264 0.0 0.0 0.00 0.34 0.00 95 1014.3
20260903072536 77 264 0.0 0.0 0.00 0.34 0.00 95 1014.3
20260903072036 77 264 0.0 0.0 0.00 0.34 0.00 95 1014.5
20260903071535 77 264 0.0 0.0 0.00 0.34 0.00 95 1014.6
20260903071033 77 264 0.0 0.0 0.00 0.34 0.00 95 1014.6
20260903070533 77 264 0.0 0.0 0.00 0.34 0.00 95 1014.6
20260903070033 77 264 0.0 0.0 0.00 0.34 0.00 95 1014.5
20260903065532 77 264 0.0 0.0 0.00 0.34 0.00 95 1014.5
20260903065032 77 264 0.0 0.0 0.00 0.34 0.00 95 1014.6
20260903064531 77 264 0.0 0.0 0.00 0.34 0.00 95 1014.6
20260903064030 77 264 0.0 0.0 0.00 0.34 0.00 95 1014.6
20260903063531 77 264 0.0 0.0 0.00 0.34 0.00 95 1014.6
20260903063030 77 264 0.0 0.0 0.00 0.34 0.00 95 1014.7
20260903062526 77 264 0.0 0.0 0.00 0.34 0.00 95 1014.8
20260903062024 77 264 0.0 0.0 0.00 0.34 0.00 95 1014.8
20260903061534 77 264 0.0 0.0 0.00 0.34 0.00 95 1015.0
20260903061027 77 264 0.0 0.0 0.00 0.34 0.00 95 1015.0
20260903060522 77 264 0.0 0.0 0.00 0.34 0.00 95 1015.1
20260903060034 77 264 0.0 0.0 0.00 0.34 0.00 95 1015.1
20260903055520 77 264 0.0 0.0 0.00 0.34 0.00 95 1015.1
20260903055020 77 264 0.0 0.0 0.00 0.34 0.00 95 1015.2
20260903054521 77 264 0.0 0.0 0.00 0.34 0.00 95 1015.3
20260903053504 77 264 0.0 0.0 0.00 0.34 0.00 95 1015.4
20260903053117 77 264 0.0 0.0 0.00 0.34 0.00 95 1015.3
20260903052503 77 264 0.0 0.0 0.00 0.34 0.00 95 1015.3
20260903052002 77 264 0.0 0.0 0.00 0.34 0.00 95 1015.5
20260903051635 77 264 0.0 0.0 0.00 0.34 0.00 95 1015.5
20260903045553 77 264 0.0 0.0 0.00 0.34 0.00 94 1015.3
20260903045053 77 264 0.0 0.0 0.00 0.34 0.00 94 1015.5
20260903044559 77 264 0.0 0.0 0.00 0.34 0.00 94 1015.5
20260903044052 77 264 0.0 0.0 0.00 0.34 0.00 94 1015.5
20260903043549 77 264 0.0 0.0 0.00 0.34 0.00 94 1015.4
20260903043106 77 264 0.0 0.0 0.00 0.34 0.00 94 1015.5
20260903042547 77 264 0.0 0.0 0.00 0.34 0.00 94 1015.4
20260903042051 77 264 0.0 0.0 0.00 0.34 0.00 94 1015.4
20260903041551 77 264 0.0 0.0 0.00 0.34 0.00 94 1015.5
20260903041047 77 264 0.0 0.0 0.00 0.34 0.00 94 1015.5
20260903040544 77 264 0.0 0.0 0.00 0.34 0.00 94 1015.4
20260903040045 77 264 0.0 0.0 0.00 0.34 0.00 94 1015.5
20260903035540 77 264 0.0 0.0 0.00 0.34 0.34 94 1015.5
20260903035040 77 264 0.0 0.0 0.00 0.34 0.34 94 1015.5
20260903034540 77 264 0.0 0.0 0.00 0.34 0.34 94 1015.6
20260903034039 77 264 0.0 0.0 0.00 0.34 0.34 94 1015.7
20260903033538 77 264 0.0 0.0 0.00 0.34 0.34 94 1015.7
20260903033038 77 264 0.0 0.0 0.00 0.34 0.34 94 1015.7
20260903032537 77 264 0.0 0.0 0.00 0.34 0.34 94 1015.7
20260903032037 77 264 0.0 0.0 0.00 0.34 0.34 94 1015.8
20260903031536 77 264 0.0 0.0 0.00 0.34 0.34 94 1015.8
20260903031035 77 264 0.0 0.0 0.00 0.34 0.34 94 1015.8
20260903030535 77 264 0.0 0.0 0.00 0.34 0.34 94 1015.8
20260903030035 77 264 0.0 0.0 0.00 0.34 0.34 94 1015.8
20260903025535 77 264 0.0 0.0 0.00 0.34 0.34 94 1015.9
20260903025035 77 264 0.0 0.0 0.00 0.34 0.34 94 1015.9
20260903024533 77 264 0.0 0.0 0.00 0.34 0.34 94 1016.1
20260903024032 77 264 0.0 0.0 0.00 0.34 0.34 94 1016.1
20260903023530 77 264 0.0 0.0 0.00 0.34 0.34 94 1016.1
20260903023030 77 264 0.0 0.0 0.00 0.34 0.34 94 1015.9
20260903022532 77 264 0.0 0.0 0.00 0.34 0.34 93 1016.0
20260903022029 77 264 0.0 0.0 0.00 0.34 0.34 93 1016.1
20260903021528 77 264 0.0 0.0 0.00 0.34 0.34 93 1016.1
20260903021031 77 264 0.0 0.0 0.00 0.34 0.34 93 1016.1
20260903020526 77 264 0.0 0.0 0.00 0.34 0.34 93 1016.0
20260903020026 77 264 0.0 0.0 0.00 0.34 0.34 93 1016.0
20260903015527 77 264 0.0 0.0 0.00 0.34 0.34 93 1016.0
20260903015026 77 264 0.0 0.0 0.00 0.34 0.34 93 1016.1
20260903014525 77 264 0.0 0.0 0.00 0.34 0.34 93 1016.0
20260903014024 77 264 0.0 0.0 0.00 0.34 0.34 93 1015.9
20260903013524 77 264 0.0 0.0 0.00 0.34 0.34 93 1015.9
20260903013024 77 264 0.0 0.0 0.00 0.34 0.34 92 1015.8
20260903012526 78 264 0.0 0.0 0.00 0.34 0.34 92 1015.8
20260903012024 78 264 0.0 0.0 0.00 0.34 0.34 92 1015.8
20260903011521 78 264 0.0 0.0 0.00 0.34 0.34 92 1016.0
20260903011022 78 264 0.0 0.0 0.00 0.34 0.34 92 1015.9
20260903010520 78 264 0.0 0.0 0.00 0.34 0.34 92 1016.0
20260903010020 78 264 0.0 0.0 0.00 0.34 0.34 92 1016.0
20260903005519 78 264 0.0 0.0 0.00 0.34 0.34 92 1015.8
20260903005019 78 264 0.0 0.0 0.00 0.34 0.34 91 1015.6
20260903004523 78 264 0.0 0.0 0.00 0.34 0.34 91 1015.6
20260903004017 78 264 0.0 0.0 0.00 0.34 0.34 91 1015.5
20260903003517 78 264 0.0 0.0 0.00 0.34 0.34 91 1015.5
20260903003020 79 264 0.0 0.0 0.00 0.34 0.34 91 1015.6
20260903002517 79 264 0.0 0.9 0.00 0.34 0.34 91 1015.6
20260903002014 79 264 0.0 0.9 0.00 0.34 0.34 91 1015.5
20260903001519 79 264 0.0 0.9 0.00 0.34 0.34 91 1015.5
20260903001014 79 330 0.0 2.6 0.00 0.34 0.34 91 1015.6
20260903000512 79 333 0.0 2.6 0.00 0.34 0.34 91 1015.6
20260903000011 79 324 0.0 1.7 0.00 0.34 0.34 91 1015.5
20260902235511 79 98 0.0 0.0 0.00 0.34 0.34 91 1015.4
20260902235010 79 98 0.0 0.0 0.00 0.34 0.34 91 1015.5
20260902234510 80 107 0.0 0.9 0.00 0.34 0.34 91 1015.4
20260902234012 80 94 0.0 0.9 0.00 0.34 0.34 91 1015.4
20260902233509 80 229 0.0 0.9 0.00 0.34 0.34 91 1015.3
20260902233009 80 229 0.0 0.9 0.00 0.34 0.34 90 1015.4
20260902232509 80 229 0.0 0.9 0.00 0.34 0.34 90 1015.4
20260902232008 80 262 0.0 0.9 0.00 0.34 0.34 90 1015.5
20260902231511 80 274 0.0 0.9 0.00 0.34 0.34 90 1015.3
20260902231006 80 230 0.0 0.9 0.00 0.34 0.34 91 1015.3
20260902230506 80 230 0.0 0.9 0.00 0.34 0.34 91 1015.2
20260902230006 80 230 0.0 0.9 0.00 0.34 0.34 91 1015.3
20260902225505 80 230 0.0 0.9 0.00 0.34 0.34 91 1015.4
20260902225005 80 338 0.0 0.9 0.00 0.34 0.34 91 1015.5
20260902224504 80 311 0.0 0.0 0.00 0.34 0.34 91 1015.5
20260902224003 80 311 0.0 1.7 0.00 0.34 0.34 91 1015.4
20260902223501 80 311 0.0 1.7 0.00 0.34 0.34 90 1015.5
20260902223001 80 116 0.0 1.7 0.00 0.34 0.34 91 1015.5
20260902222559 80 214 0.0 0.9 0.00 0.34 0.34 91 1015.5
20260902222505 80 303 0.0 0.9 0.00 0.34 0.34 91 1015.6
20260902222103 80 303 0.0 0.9 0.00 0.34 0.34 91 1015.5
20260902221607 80 303 0.0 1.7 0.02 0.34 0.34 90 1015.4
20260902221059 80 198 0.0 3.5 0.04 0.34 0.34 91 1015.3
20260902220557 80 77 0.0 3.5 0.04 0.34 0.34 91 1015.3
20260902220101 80 204 0.0 1.7 0.04 0.34 0.34 91 1015.5
20260902215556 80 290 0.0 3.5 0.04 0.34 0.34 91 1015.4
20260902215055 80 338 0.0 3.5 0.04 0.34 0.34 91 1015.6
20260902214603 81 309 0.0 0.9 0.04 0.34 0.34 93 1015.7
20260902214055 81 308 0.0 0.9 0.04 0.34 0.34 93 1015.7
20260902213557 81 307 0.0 0.9 0.04 0.34 0.34 93 1015.6
20260902213052 81 93 0.0 0.0 0.04 0.34 0.34 93 1015.6
20260902212552 80 93 0.0 1.7 0.04 0.34 0.34 92 1015.7
20260902212051 80 94 0.0 1.7 0.04 0.34 0.34 92 1015.7
20260902211607 81 303 0.0 0.9 0.03 0.32 0.32 92 1015.6
20260902211050 81 302 0.0 0.0 0.01 0.30 0.30 93 1015.7
20260902210552 81 303 0.0 0.9 0.01 0.30 0.30 93 1015.6
20260902210112 81 302 0.0 0.9 0.01 0.30 0.30 93 1015.5
20260902205548 81 302 0.0 0.0 0.01 0.30 0.30 93 1015.5
20260902205048 81 302 0.0 0.0 0.01 0.30 0.30 93 1015.6
20260902204547 80 302 0.0 0.0 0.01 0.30 0.30 92 1015.5
20260902204046 80 303 0.0 1.7 0.01 0.30 0.30 92 1015.5
20260902203544 80 303 0.0 1.7 0.01 0.30 0.30 92 1015.6
20260902203044 80 316 0.0 0.9 0.01 0.30 0.30 92 1015.5
20260902202543 80 133 0.0 0.0 0.01 0.30 0.30 92 1015.6
20260902202043 80 133 0.0 2.6 0.07 0.30 0.30 92 1015.6
20260902201541 80 42 0.0 2.6 0.27 0.28 0.28 91 1015.8
20260902201042 81 322 0.0 0.0 0.28 0.28 0.28 92 1015.7
20260902200544 81 322 0.0 0.9 0.28 0.28 0.28 91 1015.7
20260902200040 81 311 0.0 0.9 0.28 0.28 0.28 91 1015.7
20260902195540 81 304 0.0 0.9 0.28 0.28 0.28 92 1015.7
20260902195039 81 343 0.0 1.7 0.28 0.28 0.28 92 1015.6
20260902194538 81 309 0.0 1.7 0.28 0.28 0.28 92 1015.7
20260902194041 81 72 0.0 0.9 0.28 0.28 0.28 92 1015.6
20260902193537 80 249 0.0 1.7 0.28 0.28 0.28 91 1015.8
20260902193036 80 77 0.0 1.7 0.28 0.28 0.28 90 1015.8
20260902192537 81 91 0.0 2.6 0.28 0.28 0.28 88 1015.8
20260902192034 82 300 0.0 2.6 0.20 0.20 0.20 87 1016.0
20260902191537 83 315 0.0 2.6 0.01 0.01 0.01 86 1015.9
20260902191032 84 319 0.0 1.7 0.01 0.01 0.01 86 1015.7
20260902190532 84 6 0.0 1.7 0.01 0.01 0.01 86 1015.7
20260902190037 84 4 0.0 1.7 0.01 0.01 0.01 87 1015.7
20260902185533 84 107 0.0 1.7 0.01 0.01 0.01 87 1015.9
20260902185031 84 291 0.0 1.7 0.01 0.01 0.01 87 1016.1
20260902184532 84 310 0.0 1.7 0.01 0.01 0.01 86 1016.0
20260902184032 85 155 0.0 3.5 0.01 0.01 0.01 84 1016.3
20260902183630 87 152 0.0 3.5 0.00 0.00 0.00 82 1016.2
20260902183029 88 285 0.0 5.2 0.00 0.00 0.00 81 1016.1
20260902182532 89 51 0.9 5.2 0.00 0.00 0.00 81 1016.0
20260902182027 88 154 0.0 2.6 0.00 0.00 0.00 82 1016.1
20260902181527 87 240 0.0 1.7 0.00 0.00 0.00 82 1016.2
20260902181033 87 27 0.0 1.7 0.00 0.00 0.00 83 1016.1
20260902180526 87 269 0.0 2.6 0.00 0.00 0.00 83 1016.3
20260902180026 86 304 0.0 3.5 0.00 0.00 0.00 82 1016.4
20260902175529 87 326 0.0 4.3 0.00 0.00 0.00 83 1016.4
20260902175024 87 206 0.0 4.3 0.00 0.00 0.00 83 1016.3
20260902174523 87 227 0.0 1.7 0.00 0.00 0.00 82 1016.4
20260902174023 87 323 0.0 2.6 0.00 0.00 0.00 82 1016.5
20260902173521 87 197 0.0 3.5 0.00 0.00 0.00 82 1016.5
20260902173021 87 212 0.0 3.5 0.00 0.00 0.00 81 1016.3
20260902172519 88 88 0.0 3.5 0.00 0.00 0.00 79 1016.4
20260902172024 89 337 0.0 3.5 0.00 0.00 0.00 78 1016.4
20260902171518 90 198 0.0 3.5 0.00 0.00 0.00 75 1016.3
20260902171020 92 86 0.0 3.5 0.00 0.00 0.00 75 1016.4
20260902170516 92 326 0.0 3.5 0.00 0.00 0.00 73 1016.4
20260902170117 93 86 0.0 4.3 0.00 0.00 0.00 72 1016.4
20260902165514 93 221 0.0 4.3 0.00 0.00 0.00 75 1016.5
20260902165012 92 106 0.9 6.1 0.00 0.00 0.00 76 1016.6
20260902164509 92 316 0.0 3.5 0.00 0.00 0.00 76 1016.6
20260902164008 90 315 0.0 3.5 0.00 0.00 0.00 79 1016.7
20260902163507 90 97 0.0 2.6 0.00 0.00 0.00 79 1016.7
20260902163005 89 274 0.0 2.6 0.00 0.00 0.00 81 1016.8
20260902162504 87 174 0.0 5.2 0.00 0.00 0.00 83 1017.1
20260902162004 87 303 0.9 5.2 0.00 0.00 0.00 81 1017.0
20260902161504 88 300 0.9 5.2 0.00 0.00 0.00 80 1017.0
20260902161002 88 259 0.0 6.1 0.00 0.00 0.00 82 1017.0
20260902160502 88 213 0.0 6.1 0.00 0.00 0.00 80 1017.1
20260902160201 89 127 0.0 3.5 0.00 0.00 0.00 80 1017.1
20260902155600 88 276 0.0 2.6 0.00 0.01 0.00 82 1017.2
20260902155059 88 80 0.0 1.7 0.00 0.01 0.00 81 1017.3
20260902154559 89 321 0.0 0.9 0.00 0.01 0.00 78 1017.2
20260902154059 88 244 0.0 2.6 0.00 0.01 0.00 80 1017.3
20260902153557 89 300 0.0 3.5 0.00 0.01 0.00 78 1017.4
20260902153056 90 170 0.0 3.5 0.00 0.01 0.00 78 1017.5
20260902152554 89 79 0.0 2.6 0.00 0.01 0.00 79 1017.4
20260902152053 89 129 0.0 2.6 0.00 0.01 0.00 78 1017.3
20260902151558 89 289 0.0 2.6 0.00 0.01 0.00 79 1017.4
20260902151050 87 243 0.0 2.6 0.00 0.01 0.00 82 1017.5
20260902150549 87 176 0.0 1.7 0.00 0.01 0.00 80 1017.5
20260902150048 88 311 0.0 1.7 0.00 0.01 0.00 80 1017.4
20260902145546 88 305 0.0 2.6 0.00 0.01 0.00 81 1017.5
20260902145045 87 131 0.0 1.7 0.00 0.01 0.00 82 1017.5
20260902144558 87 316 0.0 2.6 0.00 0.01 0.00 81 1017.4
20260902144046 87 197 0.0 2.6 0.00 0.01 0.00 82 1017.3
20260902143543 87 122 0.0 2.6 0.00 0.01 0.00 82 1017.4
20260902143040 87 8 0.0 2.6 0.00 0.01 0.00 83 1017.3
20260902142639 86 302 0.0 2.6 0.00 0.01 0.00 84 1017.3
20260902142037 86 323 0.0 0.0 0.00 0.01 0.00 83 1017.2